KQ4Q-8 Weather Reports


time (UTC)temp
C
wind
direction
speed
KPH
gust
KPH
rain 1hr
cm
rain 24hr
cm
rain mn
cm
humidity
%
barometer
mb
20260508121105 5 188 4.8 4.8 0.00 0.00 0.00 80 1017.4
20260508120553 4 268 3.2 3.2 0.00 0.00 0.00 82 1017.4
20260508120052 3 281 3.2 4.8 0.00 0.00 0.00 82 1017.4
20260508115553 3 280 3.2 3.2 0.00 0.00 0.00 84 1017.4
20260508115053 3 282 1.6 3.2 0.00 0.00 0.00 87 1017.3
20260508114558 2 300 1.6 1.6 0.00 0.00 0.00 88 1017.3
20260508114053 2 297 3.2 3.2 0.00 0.00 0.00 89 1017.3
20260508113553 2 288 3.2 3.2 0.00 0.00 0.00 90 1017.2
20260508113056 2 298 3.2 3.2 0.00 0.00 0.00 91 1017.2
20260508112553 2 299 3.2 3.2 0.00 0.00 0.00 91 1017.1
20260508112053 1 295 3.2 3.2 0.00 0.00 0.00 91 1017.1
20260508111554 1 277 1.6 1.6 0.00 0.00 0.00 92 1017.0
20260508111053 1 232 1.6 1.6 0.00 0.00 0.00 92 1016.9
20260508110553 1 0 0.0 0.0 0.00 0.00 0.00 92 1016.8
20260508110055 1 255 0.0 0.0 0.00 0.00 0.00 92 1016.8
20260508105553 1 258 0.0 1.6 0.00 0.00 0.00 93 1016.8
20260508105053 1 264 1.6 1.6 0.00 0.00 0.00 93 1016.8
20260508104551 1 279 0.0 0.0 0.00 0.00 0.00 93 1016.7
20260508104051 1 269 3.2 3.2 0.00 0.00 0.00 93 1016.7
20260508103553 1 287 3.2 3.2 0.00 0.00 0.00 94 1016.7
20260508103056 1 277 1.6 3.2 0.00 0.00 0.00 93 1016.7
20260508102553 1 284 3.2 3.2 0.00 0.00 0.00 94 1016.7
20260508102054 1 284 3.2 4.8 0.00 0.00 0.00 94 1016.7
20260508101556 1 278 3.2 3.2 0.00 0.00 0.00 94 1016.7
20260508101053 1 292 3.2 3.2 0.00 0.00 0.00 94 1016.5
20260508100552 1 289 3.2 3.2 0.00 0.00 0.00 94 1016.5
20260508100054 1 283 3.2 3.2 0.00 0.00 0.00 94 1016.4
20260508095554 1 270 4.8 4.8 0.00 0.00 0.00 94 1016.4
20260508095053 1 277 3.2 3.2 0.00 0.00 0.00 94 1016.3
20260508094553 1 283 3.2 4.8 0.00 0.00 0.00 94 1016.3
20260508094053 1 280 3.2 3.2 0.00 0.00 0.00 94 1016.2
20260508093553 1 283 3.2 3.2 0.00 0.00 0.00 94 1016.2
20260508093051 1 276 3.2 3.2 0.00 0.00 0.00 94 1016.2
20260508092553 1 281 3.2 3.2 0.00 0.00 0.00 94 1016.3
20260508092054 1 282 3.2 3.2 0.00 0.00 0.00 94 1016.2
20260508091557 1 283 3.2 3.2 0.00 0.00 0.00 94 1016.2
20260508091056 1 285 3.2 3.2 0.00 0.00 0.00 94 1016.2
20260508090554 1 278 3.2 3.2 0.00 0.00 0.00 94 1016.1
20260508090055 1 281 3.2 4.8 0.00 0.00 0.00 94 1016.1
20260508085555 1 281 3.2 4.8 0.00 0.00 0.00 94 1016.0
20260508085054 1 279 3.2 3.2 0.00 0.00 0.00 94 1016.0
20260508084552 1 277 3.2 3.2 0.00 0.00 0.00 93 1016.1
20260508084052 1 288 3.2 3.2 0.00 0.00 0.00 94 1016.0
20260508083551 1 281 3.2 4.8 0.00 0.00 0.00 93 1016.0
20260508083054 1 283 3.2 4.8 0.00 0.00 0.00 94 1016.0
20260508082553 2 280 3.2 4.8 0.00 0.00 0.00 94 1016.1
20260508082053 2 276 3.2 4.8 0.00 0.00 0.00 94 1016.0
20260508081555 2 284 3.2 4.8 0.00 0.00 0.00 94 1015.9
20260508081053 2 279 3.2 3.2 0.00 0.00 0.00 95 1015.9
20260508080552 2 279 3.2 4.8 0.00 0.00 0.00 94 1015.8
20260508080054 2 284 3.2 3.2 0.00 0.00 0.00 94 1015.8
20260508075555 2 269 3.2 3.2 0.00 0.00 0.00 94 1015.9
20260508075053 2 270 3.2 3.2 0.00 0.00 0.00 94 1015.9
20260508074554 2 273 3.2 3.2 0.00 0.00 0.00 94 1016.0
20260508074051 2 268 3.2 3.2 0.00 0.00 0.00 94 1016.0
20260508073553 2 272 3.2 4.8 0.00 0.00 0.00 94 1015.9
20260508073054 2 254 3.2 3.2 0.00 0.00 0.00 93 1015.9
20260508072553 2 293 3.2 4.8 0.00 0.00 0.00 94 1015.9
20260508072053 2 290 3.2 4.8 0.00 0.00 0.00 94 1015.8
20260508071552 2 290 3.2 4.8 0.00 0.00 0.00 94 1015.8
20260508071055 2 280 3.2 3.2 0.00 0.00 0.00 94 1015.8
20260508070553 2 278 3.2 3.2 0.00 0.00 0.00 94 1015.8
20260508070053 2 259 1.6 3.2 0.00 0.00 0.00 94 1015.8
20260508065553 2 278 3.2 4.8 0.00 0.00 0.00 94 1015.8
20260508065055 2 251 1.6 3.2 0.00 0.00 0.00 93 1015.8
20260508064555 3 272 0.0 1.6 0.00 0.00 0.00 93 1015.8
20260508064053 3 287 3.2 3.2 0.00 0.00 0.00 93 1015.8
20260508063553 3 289 3.2 4.8 0.00 0.00 0.00 93 1015.9
20260508063053 3 286 3.2 3.2 0.00 0.00 0.00 93 1015.8
20260508062553 3 277 3.2 3.2 0.00 0.00 0.00 92 1015.8
20260508062054 3 288 3.2 3.2 0.00 0.00 0.00 92 1015.9
20260508061555 3 283 3.2 3.2 0.00 0.00 0.00 91 1016.0
20260508061053 3 289 3.2 3.2 0.00 0.00 0.00 90 1016.0
20260508060554 3 284 3.2 4.8 0.00 0.00 0.00 89 1016.0
20260508060054 3 284 3.2 3.2 0.00 0.00 0.00 86 1016.0
20260508055553 3 281 3.2 3.2 0.00 0.00 0.00 83 1016.1
20260508055052 4 280 1.6 3.2 0.00 0.00 0.00 80 1016.1
20260508054555 4 247 1.6 3.2 0.00 0.00 0.00 78 1016.1
20260508054053 4 298 0.0 1.6 0.00 0.00 0.00 78 1016.1
20260508053554 5 228 0.0 1.6 0.00 0.00 0.00 77 1016.0
20260508053052 5 0 0.0 0.0 0.00 0.00 0.00 78 1016.0
20260508052552 5 288 0.0 1.6 0.00 0.00 0.00 77 1015.9
20260508052053 5 307 0.0 1.6 0.00 0.00 0.00 78 1015.9
20260508051554 5 316 0.0 1.6 0.00 0.00 0.00 79 1015.9
20260508051056 5 273 0.0 1.6 0.00 0.00 0.00 78 1015.8
20260508050553 5 284 0.0 1.6 0.00 0.00 0.00 77 1015.7
20260508050054 5 0 0.0 0.0 0.00 0.00 0.00 78 1015.7
20260508045552 5 257 0.0 0.0 0.00 0.00 0.00 78 1015.6
20260508045051 5 0 0.0 0.0 0.00 0.00 0.00 78 1015.5
20260508044551 5 199 0.0 3.2 0.00 0.00 0.00 79 1015.5
20260508044055 5 210 0.0 1.6 0.00 0.00 0.00 77 1015.4
20260508043553 5 288 0.0 1.6 0.00 0.00 0.00 77 1015.4
20260508043053 5 261 0.0 0.0 0.00 0.00 0.00 78 1015.4
20260508042551 5 315 1.6 3.2 0.00 0.00 0.00 79 1015.5
20260508042051 5 287 0.0 0.0 0.00 0.00 0.00 79 1015.5
20260508041553 5 194 0.0 1.6 0.00 0.00 0.00 80 1015.5
20260508041053 5 282 0.0 0.0 0.00 0.00 0.00 80 1015.5
20260508040556 6 326 0.0 0.0 0.00 0.00 0.00 80 1015.5
20260508040056 6 264 0.0 1.6 0.00 0.00 0.00 80 1015.4
20260508035554 6 11 0.0 1.6 0.00 0.00 0.00 81 1015.4
20260508035052 6 247 1.6 3.2 0.00 0.00 0.00 79 1015.2
20260508034551 6 0 0.0 0.0 0.00 0.00 0.00 79 1015.2
20260508034052 6 278 0.0 0.0 0.00 0.00 0.00 79 1015.2
20260508033555 6 286 0.0 1.6 0.00 0.00 0.00 80 1015.2
20260508033055 6 242 0.0 1.6 0.00 0.00 0.00 79 1015.2
20260508032556 6 0 0.0 0.0 0.00 0.00 0.00 79 1015.2
20260508032054 6 0 0.0 0.0 0.00 0.00 0.00 78 1015.2
20260508031553 7 241 0.0 1.6 0.00 0.00 0.00 77 1015.2
20260508031052 6 320 0.0 1.6 0.00 0.00 0.00 78 1015.2
20260508030552 7 280 0.0 0.0 0.00 0.00 0.00 79 1015.2
20260508030053 7 0 0.0 0.0 0.00 0.00 0.00 79 1015.1
20260508025552 7 0 0.0 0.0 0.00 0.00 0.00 77 1015.0
20260508025052 7 284 0.0 1.6 0.00 0.00 0.00 75 1015.0
20260508024551 7 0 0.0 0.0 0.00 0.00 0.00 75 1014.9
20260508024051 7 285 0.0 1.6 0.00 0.00 0.00 75 1014.8
20260508023552 7 0 0.0 0.0 0.00 0.00 0.00 76 1014.8
20260508023053 8 243 0.0 0.0 0.00 0.00 0.00 75 1014.8
20260508022554 8 238 0.0 1.6 0.00 0.00 0.00 74 1014.8
20260508022052 8 308 1.6 3.2 0.00 0.00 0.00 74 1014.7
20260508021552 8 297 0.0 1.6 0.00 0.00 0.00 73 1014.6
20260508021052 8 0 0.0 0.0 0.00 0.00 0.00 72 1014.5
20260508020551 8 241 0.0 3.2 0.00 0.00 0.00 74 1014.4
20260508020053 8 283 1.6 3.2 0.00 0.00 0.00 72 1014.4
20260508015552 8 0 0.0 0.0 0.00 0.00 0.00 74 1014.4
20260508015051 8 241 3.2 4.8 0.00 0.00 0.00 74 1014.3
20260508014551 8 309 0.0 1.6 0.00 0.00 0.00 76 1014.3
20260508014052 8 252 3.2 4.8 0.00 0.00 0.00 73 1014.2
20260508013552 8 334 0.0 3.2 0.00 0.00 0.00 74 1014.2
20260508013051 8 0 0.0 0.0 0.00 0.00 0.00 74 1014.1
20260508012551 8 292 0.0 1.6 0.00 0.00 0.00 74 1014.1
20260508012052 8 297 0.0 1.6 0.00 0.00 0.00 73 1014.0
20260508011553 9 247 0.0 1.6 0.00 0.00 0.00 72 1014.0
20260508011051 9 328 1.6 3.2 0.00 0.00 0.00 73 1013.8
20260508010551 9 264 0.0 1.6 0.00 0.00 0.00 71 1013.8
20260508010055 9 255 1.6 3.2 0.00 0.00 0.00 73 1013.8
20260508005552 9 269 0.0 3.2 0.00 0.00 0.00 71 1013.8
20260508005052 9 310 3.2 4.8 0.00 0.00 0.00 71 1013.8
20260508004551 10 312 0.0 3.2 0.00 0.00 0.00 72 1013.7
20260508004054 10 264 0.0 1.6 0.00 0.00 0.00 70 1013.6
20260508003553 10 234 1.6 3.2 0.00 0.00 0.00 70 1013.5
20260508003054 10 265 1.6 3.2 0.00 0.00 0.00 70 1013.5
20260508002553 10 303 1.6 3.2 0.00 0.00 0.00 70 1013.5
20260508002051 10 288 1.6 3.2 0.00 0.00 0.00 68 1013.5
20260508001552 10 251 4.8 6.4 0.00 0.00 0.00 67 1013.5
20260508001053 11 267 3.2 6.4 0.00 0.00 0.00 67 1013.5
20260508000552 11 0 0.0 0.0 0.00 0.00 0.00 68 1013.4
20260508000053 11 227 0.0 3.2 0.00 0.00 0.00 67 1013.4
20260507235551 11 241 4.8 8.0 0.00 0.00 0.00 67 1013.5
20260507235053 11 244 4.8 6.4 0.00 0.00 0.00 66 1013.4
20260507234554 11 278 4.8 6.4 0.00 0.00 0.00 65 1013.4
20260507234053 11 252 4.8 8.0 0.00 0.00 0.00 64 1013.4
20260507233552 11 268 8.0 9.7 0.00 0.00 0.00 63 1013.4
20260507233052 12 293 4.8 8.0 0.00 0.00 0.00 63 1013.3
20260507232553 12 296 3.2 4.8 0.00 0.00 0.00 64 1013.3
20260507232052 11 326 3.2 8.0 0.00 0.00 0.00 63 1013.2
20260507231553 11 354 4.8 12.9 0.00 0.00 0.00 67 1013.3
20260507231059 11 219 3.2 6.4 0.00 0.00 0.00 66 1013.3
20260507230552 11 229 3.2 4.8 0.00 0.00 0.00 66 1013.2
20260507230052 11 222 3.2 6.4 0.00 0.00 0.00 66 1013.1
20260507225552 12 225 3.2 4.8 0.00 0.00 0.00 65 1013.1
20260507225051 12 263 3.2 4.8 0.00 0.00 0.00 66 1013.2
20260507224554 12 241 3.2 6.4 0.00 0.00 0.00 65 1013.2
20260507224051 12 279 6.4 9.7 0.00 0.00 0.00 64 1013.1
20260507223551 12 214 4.8 9.7 0.00 0.00 0.00 64 1013.1
20260507223053 12 258 6.4 12.9 0.00 0.00 0.00 65 1013.0
20260507222552 12 281 4.8 6.4 0.00 0.00 0.00 65 1013.0
20260507222053 12 240 3.2 6.4 0.00 0.00 0.00 65 1013.0
20260507221552 12 299 4.8 9.7 0.00 0.00 0.00 65 1012.9
20260507221052 12 272 3.2 6.4 0.00 0.00 0.00 65 1012.9
20260507220553 12 250 6.4 9.7 0.00 0.00 0.00 64 1012.9
20260507220055 12 263 6.4 9.7 0.00 0.00 0.00 65 1012.8
20260507215551 12 307 6.4 12.9 0.00 0.00 0.00 65 1012.8
20260507215053 12 249 4.8 9.7 0.00 0.00 0.00 65 1012.7
20260507214552 12 241 4.8 8.0 0.00 0.00 0.00 66 1012.7
20260507214101 12 295 3.2 3.2 0.00 0.00 0.00 68 1012.7
20260507213555 12 250 3.2 6.4 0.00 0.00 0.00 65 1012.7
20260507213053 12 275 3.2 6.4 0.00 0.00 0.00 67 1012.7
20260507212553 11 346 1.6 6.4 0.00 0.00 0.00 67 1012.7
20260507212053 11 279 3.2 4.8 0.00 0.00 0.00 66 1012.5
20260507211552 11 273 3.2 4.8 0.00 0.00 0.00 67 1012.5
20260507211054 11 238 6.4 9.7 0.00 0.00 0.00 65 1012.4
20260507210552 11 265 6.4 8.0 0.00 0.00 0.00 65 1012.3
20260507210054 11 279 4.8 9.7 0.00 0.00 0.00 66 1012.2
20260507205552 11 337 3.2 8.0 0.00 0.00 0.00 66 1012.3
20260507205052 11 275 3.2 6.4 0.00 0.00 0.00 66 1012.3
20260507204551 12 256 3.2 6.4 0.00 0.00 0.00 67 1012.3
20260507204054 11 283 3.2 6.4 0.00 0.00 0.00 68 1012.3
20260507203551 12 326 6.4 9.7 0.00 0.00 0.00 67 1012.2
20260507203053 11 264 3.2 4.8 0.00 0.00 0.00 66 1012.3
20260507202553 11 271 6.4 9.7 0.00 0.00 0.00 67 1012.4
20260507202052 11 248 8.0 11.3 0.00 0.00 0.00 67 1012.5
20260507201555 11 259 4.8 9.7 0.00 0.00 0.00 67 1012.7
20260507201053 11 244 4.8 8.0 0.00 0.00 0.00 69 1012.5
20260507200556 11 255 6.4 12.9 0.00 0.00 0.00 69 1012.7
20260507200053 11 251 4.8 6.4 0.00 0.00 0.00 69 1012.7
20260507195555 11 216 8.0 12.9 0.00 0.00 0.00 69 1012.8
20260507195055 11 300 4.8 9.7 0.00 0.00 0.00 69 1012.7
20260507194554 11 259 1.6 3.2 0.00 0.00 0.00 71 1012.5
20260507194054 11 266 3.2 6.4 0.00 0.00 0.00 71 1012.4
20260507193554 11 338 1.6 6.4 0.00 0.00 0.00 70 1012.5
20260507193052 11 312 4.8 6.4 0.00 0.00 0.00 71 1012.7
20260507192551 11 245 4.8 6.4 0.00 0.00 0.00 70 1012.7
20260507192055 12 339 3.2 6.4 0.00 0.00 0.00 69 1012.7
20260507191554 12 21 3.2 6.4 0.00 0.00 0.00 67 1012.8
20260507191053 12 252 4.8 8.0 0.00 0.00 0.00 69 1012.9
20260507190554 12 270 4.8 8.0 0.00 0.00 0.00 68 1012.9
20260507190053 11 224 3.2 6.4 0.00 0.00 0.00 69 1012.9
20260507185554 11 205 3.2 8.0 0.00 0.00 0.00 69 1013.0
20260507185052 11 245 3.2 6.4 0.00 0.00 0.00 69 1013.2
20260507184554 11 195 3.2 4.8 0.00 0.00 0.00 69 1013.1
20260507184054 11 253 3.2 6.4 0.00 0.00 0.00 70 1013.2
20260507183555 11 320 6.4 9.7 0.00 0.00 0.00 70 1013.1
20260507183054 11 291 3.2 6.4 0.00 0.00 0.00 70 1013.1
20260507182552 11 227 3.2 6.4 0.00 0.00 0.00 69 1013.0
20260507182052 11 295 4.8 6.4 0.00 0.00 0.00 71 1013.0
20260507181552 11 16 1.6 4.8 0.00 0.00 0.00 71 1013.0
20260507181054 11 43 1.6 3.2 0.00 0.00 0.00 70 1013.0
20260507180554 11 232 4.8 8.0 0.00 0.00 0.00 69 1013.1
20260507180052 11 236 3.2 4.8 0.00 0.00 0.00 70 1013.1
20260507175553 11 256 4.8 9.7 0.00 0.00 0.00 70 1013.1
20260507175054 11 323 0.0 1.6 0.00 0.00 0.00 70 1013.0
20260507174554 11 223 3.2 6.4 0.00 0.00 0.00 70 1013.0
20260507174052 11 338 0.0 1.6 0.00 0.00 0.00 71 1013.0
20260507173552 11 252 3.2 8.0 0.00 0.00 0.00 72 1013.1
20260507173056 11 293 3.2 4.8 0.00 0.00 0.00 73 1013.1
20260507172553 11 88 3.2 3.2 0.00 0.00 0.00 73 1013.0
20260507172054 11 223 1.6 4.8 0.00 0.00 0.00 73 1013.1
20260507171553 11 277 3.2 6.4 0.00 0.00 0.00 72 1013.0
20260507171053 11 243 4.8 8.0 0.00 0.00 0.00 70 1013.0
20260507170556 11 219 3.2 8.0 0.00 0.00 0.00 71 1013.2
20260507170052 11 286 3.2 4.8 0.00 0.00 0.00 73 1013.1
20260507165553 11 261 4.8 8.0 0.00 0.00 0.00 74 1013.2
20260507165057 11 237 4.8 8.0 0.00 0.00 0.00 72 1013.2
20260507164555 11 261 3.2 8.0 0.00 0.00 0.00 72 1013.2
20260507164056 11 25 3.2 4.8 0.00 0.00 0.00 73 1013.2
20260507163554 11 176 0.0 1.6 0.00 0.00 0.00 72 1013.3
20260507163054 11 199 1.6 4.8 0.00 0.00 0.00 73 1013.3
20260507162554 11 307 1.6 4.8 0.00 0.00 0.00 73 1013.4
20260507162056 11 270 3.2 6.4 0.00 0.00 0.00 72 1013.4
20260507161553 10 271 1.6 3.2 0.00 0.00 0.00 76 1013.4
20260507161054 10 238 3.2 6.4 0.00 0.00 0.00 75 1013.3
20260507160554 10 312 3.2 6.4 0.00 0.00 0.00 77 1013.4
20260507160058 10 140 1.6 3.2 0.00 0.00 0.00 78 1013.4
20260507155555 10 170 3.2 6.4 0.00 0.00 0.00 79 1013.4
20260507155054 10 204 3.2 6.4 0.00 0.00 0.00 77 1013.5
20260507154554 9 105 0.0 1.6 0.00 0.00 0.00 80 1013.5
20260507154054 9 63 1.6 3.2 0.00 0.00 0.00 79 1013.5
20260507153554 9 49 3.2 3.2 0.00 0.00 0.00 79 1013.6
20260507153053 9 37 0.0 1.6 0.00 0.00 0.00 78 1013.6
20260507152555 8 209 1.6 1.6 0.00 0.00 0.00 80 1013.6
20260507152056 8 144 1.6 3.2 0.00 0.00 0.00 81 1013.5
20260507151555 8 224 1.6 3.2 0.00 0.00 0.00 78 1013.5
20260507151057 8 28 1.6 1.6 0.00 0.00 0.00 84 1013.6
20260507150553 8 114 1.6 1.6 0.00 0.00 0.00 85 1013.7
20260507150054 8 224 1.6 3.2 0.00 0.00 0.00 82 1013.7
20260507145557 8 76 1.6 3.2 0.00 0.00 0.00 87 1013.7
20260507145054 8 59 1.6 1.6 0.00 0.00 0.00 87 1013.6
20260507144556 8 31 1.6 3.2 0.00 0.00 0.00 87 1013.6
20260507144053 7 35 0.0 1.6 0.00 0.00 0.00 88 1013.5
20260507143554 7 234 0.0 0.0 0.00 0.00 0.00 90 1013.6
20260507143054 7 0 0.0 0.0 0.00 0.00 0.00 89 1013.7
20260507142553 7 124 0.0 0.0 0.00 0.00 0.00 90 1013.7
20260507142056 7 17 0.0 1.6 0.00 0.00 0.00 91 1013.7
20260507141553 7 81 1.6 3.2 0.00 0.00 0.00 91 1013.7
20260507141052 7 39 0.0 1.6 0.00 0.00 0.00 92 1013.7
20260507140554 7 16 1.6 1.6 0.00 0.00 0.00 93 1013.8
20260507140054 7 341 1.6 3.2 0.00 0.00 0.00 93 1013.8
20260507135554 7 47 0.0 0.0 0.00 0.00 0.00 93 1013.7
20260507135052 7 50 0.0 1.6 0.00 0.00 0.00 94 1013.7
20260507134556 7 47 0.0 0.0 0.00 0.00 0.00 93 1013.7
20260507134054 7 96 0.0 0.0 0.00 0.00 0.00 93 1013.8
20260507133553 7 40 3.2 3.2 0.00 0.00 0.00 94 1013.7
20260507133054 7 107 0.0 0.0 0.00 0.00 0.00 94 1013.8
20260507132556 7 24 0.0 1.6 0.00 0.00 0.00 95 1013.8
20260507132055 7 329 1.6 3.2 0.00 0.00 0.00 96 1014.0
20260507131555 7 87 1.6 1.6 0.00 0.00 0.00 96 1014.0
20260507131056 7 162 0.0 1.6 0.00 0.00 0.00 95 1014.0
20260507130553 7 93 0.0 0.0 0.00 0.00 0.00 96 1014.0
20260507130054 7 34 0.0 1.6 0.00 0.00 0.00 96 1014.1
20260507125552 7 19 0.0 0.0 0.00 0.00 0.00 96 1013.8
20260507125052 7 72 0.0 1.6 0.00 0.00 0.00 96 1013.8
20260507124110 7 24 1.6 1.6 0.00 0.00 0.00 96 1014.1
20260507123556 7 19 0.0 1.6 0.00 0.00 0.00 96 1014.1
20260507123054 7 30 0.0 1.6 0.00 0.00 0.00 96 1014.0
20260507122552 7 46 1.6 1.6 0.00 0.00 0.00 97 1014.0
20260507122053 7 73 1.6 1.6 0.00 0.00 0.00 96 1014.1